Location: Cicognara
(44.9500°N, 10.4667°E)
Time: 22:54:10
(UTC+00:00)

NOSS 0 Rocket - Pass Details

Date: 20 June 2021
Orbit: 934 x 956 km, 70.0° (Epoch: 23 July)

Event Time Altitude Azimuth Distance (km) Brightness Sun altitude
Exits shadow 21:18:01 20° 179° (S) 2,021 5.1 -16.2°
Maximum altitude 21:22:08 53° 110° (ESE) 1,152 4.1 -16.5°
Drops below altitude 10° 21:28:10 10° 36° (NE) 2,687 6.7 -17.0°
Sets 21:30:46 0° 31° (NNE) 3,639 7.5 -17.2°
